Indianapolis, IN

9:14 AM EST on December 14, 2019 (GMT -0500)
Indianapolis International

Weather History for KIND - November, 2019

Change the Weather History Date:

Thursday, November 21, 2019

  Actual Average Record
Temperature  
Mean Temperature 46 °F 41 °F  
Max Temperature 52 °F 49 °F 73 °F (1990)
Min Temperature 39 °F 33 °F 2 °F (1880)
Degree Days  
Heating Degree Days 20 24  
Month to date heating degree days 594 405  
Since 1 July heating degree days 889 806  
Cooling Degree Days 0 0  
Month to date cooling degree days 0 0  
Year to date cooling degree days 1344 1065  
Moisture  
Dew Point 45 °F    
Average Humidity 90    
Maximum Humidity 100    
Minimum Humidity 71    
Precipitation  
Precipitation 0.08 in 0.14 in 3.71 in (1883)
Month to date precipitation 0.45 2.59  
Year to date precipitation 41.95 38.16  
Snow  
Snow 0.00 in 0.00 in 1.30 in (2015)
Month to date snowfall 2.8 0.3  
Since 1 July snowfall 2.8 0.7  
Since 1 September snowfall 2.8 0.7  
Snow Depth 0.00 in    
Sea Level Pressure  
Sea Level Pressure 29.99 in    
Wind  
Wind Speed 12 mph ()    
Max Wind Speed 26 mph    
Max Gust Speed 37 mph    
Visibility 6.6 miles    
Events Rain , Thunderstorm    
T = Trace of Precipitation, MM = Missing Value Source: Averaged Metar Reports

Daily Weather History Graph

Daily Weather History Graph

Search for Another Location

Airport or City:

Astronomy

Nov. 21, 2019 Rise Set
Actual Time 7:36 AM EST 5:25 PM EST
Civil Twilight 7:06 AM EST 5:54 PM EST
Nautical Twilight 6:33 AM EST 6:27 PM EST
Astronomical Twilight 6:01 AM EST 6:59 PM EST
Moon 1:32 AM EST (11/21) 2:53 PM EST (11/21)
Length of Visible Light 10h 47m
Length of Day
9h 49m
Waning Crescent, 30% of the Moon is Illuminated
Nov 21
Waning Crescent
Nov 26
New
Dec 4
First Quarter
Dec 12
Full
Dec 18
Last Quarter

Hourly Weather History & Observations

Time (EST) Temp. Windchill Dew Point Humidity Pressure Visibility Wind Dir Wind Speed Gust Speed Precip Events Conditions
12:54 AM 41.0 °F 35.8 °F 37.0 °F 86% 30.18 in 10.0 mi SSE 8.1 mph - N/A   Overcast
1:54 AM 39.9 °F 36.7 °F 37.0 °F 89% 30.16 in 9.0 mi SSE 4.6 mph - N/A   Overcast
2:54 AM 41.0 °F 34.7 °F 37.9 °F 89% 30.12 in 10.0 mi SE 10.4 mph - N/A   Overcast
3:54 AM 41.0 °F 35.2 °F 37.9 °F 89% 30.12 in 10.0 mi SSE 9.2 mph - N/A   Overcast
4:54 AM 43.0 °F 37.7 °F 37.9 °F 82% 30.09 in 10.0 mi SSE 9.2 mph - N/A   Overcast
5:54 AM 42.1 °F 36.1 °F 37.9 °F 85% 30.06 in 10.0 mi SE 10.4 mph - N/A   Overcast
6:54 AM 43.0 °F 38.8 °F 39.0 °F 86% 30.04 in 10.0 mi SSE 6.9 mph - N/A   Overcast
8:54 AM 46.9 °F - 39.0 °F 74% 30.02 in 10.0 mi SSE 10.4 mph - 0.00 in   Overcast
9:54 AM 46.9 °F - 39.9 °F 77% 29.98 in 10.0 mi SSE 9.2 mph - 0.00 in Rain Light Rain
10:54 AM 51.1 °F - 42.1 °F 71% 29.98 in 10.0 mi South 15.0 mph - 0.00 in Rain Light Rain
11:46 AM 50.0 °F - 45.0 °F 83% 29.96 in 5.0 mi SSW 18.4 mph - 0.00 in Rain Light Rain
11:54 AM 50.0 °F - 46.0 °F 86% 29.97 in 4.0 mi SSW 17.3 mph 26.5 mph 0.01 in Rain Light Rain
11:56 AM 50.0 °F - 46.0 °F 86% 29.95 in 5.0 mi SSW 19.6 mph 26.5 mph 0.00 in Rain , Thunderstorm Light Thunderstorms and Rain
12:08 PM 50.0 °F - 46.9 °F 89% 29.94 in 4.0 mi SSW 21.9 mph 31.1 mph 0.01 in Rain Light Rain
12:10 PM 50.0 °F - 46.9 °F 89% 29.94 in 4.0 mi SSW 21.9 mph 31.1 mph 0.01 in Rain Light Rain
12:23 PM 50.0 °F - 48.0 °F 93% 29.93 in 7.0 mi SSW 21.9 mph 28.8 mph 0.01 in Rain Light Rain
12:54 PM 50.0 °F - 48.0 °F 93% 29.92 in 10.0 mi SSW 23.0 mph 35.7 mph 0.01 in   Overcast
1:54 PM 51.1 °F - 48.0 °F 89% 29.89 in 9.0 mi SSW 21.9 mph 34.5 mph N/A   Overcast
2:54 PM 51.1 °F - 48.9 °F 92% 29.88 in 10.0 mi SSW 17.3 mph 27.6 mph N/A   Overcast
4:54 PM 52.0 °F - 50.0 °F 93% 29.90 in 8.0 mi SW 23.0 mph 28.8 mph N/A   Overcast
5:54 PM 52.0 °F - 51.1 °F 97% 29.92 in 4.0 mi SW 16.1 mph - 0.00 in   Light Drizzle
6:54 PM 52.0 °F - 51.1 °F 97% 29.93 in 3.0 mi SW 17.3 mph - 0.01 in Rain Light Rain
7:54 PM 52.0 °F - 51.1 °F 97% 29.94 in 4.0 mi SW 12.7 mph - 0.01 in Rain Light Rain
8:47 PM 52.0 °F - 51.1 °F 97% 29.95 in 4.0 mi WSW 11.5 mph - 0.02 in Rain Light Rain
8:54 PM 51.1 °F - 51.1 °F 100% 29.96 in 4.0 mi West 13.8 mph 25.3 mph 0.02 in Rain Light Rain
9:16 PM 50.0 °F - 48.9 °F 96% 29.96 in 4.0 mi West 9.2 mph - 0.01 in Rain Light Rain
9:54 PM 48.9 °F - 46.9 °F 93% 29.97 in 4.0 mi WNW 15.0 mph - 0.01 in   Light Drizzle
10:21 PM 48.0 °F - 46.0 °F 93% 29.97 in 6.0 mi West 12.7 mph - 0.00 in   Light Drizzle
10:54 PM 46.9 °F - 46.0 °F 97% 29.98 in 5.0 mi West 12.7 mph - 0.00 in   Light Drizzle
11:09 PM 46.9 °F - 46.0 °F 97% 29.98 in 2.5 mi WNW 9.2 mph - 0.00 in   Light Drizzle
11:45 PM 44.1 °F 36.2 °F 43.0 °F 96% 29.99 in 3.0 mi NW 18.4 mph - 0.01 in Rain Light Rain
11:54 PM 43.0 °F 35.1 °F 42.1 °F 97% 29.99 in 3.0 mi NW 17.3 mph - 0.01 in Rain Light Rain